Time,TemperatureF,DewpointF,PressureIn,WindDirection,WindDirectionDegrees,WindSpeedMPH,WindSpeedGustMPH,Humidity,HourlyPrecipIn,Conditions,Clouds,dailyrainin,SoftwareType,DateUTC
2013-03-09 00:01:00,43.0,27.0,30.16,East,95,7.0,7.0,52,0.00,,,0.00,,2013-03-09 06:01:00,
2013-03-09 00:11:00,44.0,27.0,30.16,East,95,6.0,11.0,51,0.00,,,0.00,,2013-03-09 06:11:00,
2013-03-09 00:22:00,44.0,27.0,30.16,East,95,6.0,11.0,51,0.00,,,0.00,,2013-03-09 06:22:00,
2013-03-09 00:31:00,44.0,28.0,30.15,East,99,9.0,11.0,52,0.00,,,0.00,,2013-03-09 06:31:00,
2013-03-09 00:42:00,44.0,28.0,30.15,East,99,9.0,11.0,52,0.00,,,0.00,,2013-03-09 06:42:00,
2013-03-09 00:52:00,44.0,28.0,30.15,ESE,110,9.0,11.0,54,0.00,,,0.00,,2013-03-09 06:52:00,
2013-03-09 01:01:00,44.0,28.0,30.14,ESE,121,6.0,11.0,53,0.00,,,0.00,,2013-03-09 07:01:00,
2013-03-09 01:11:00,44.0,28.0,30.14,ESE,121,6.0,11.0,53,0.00,,,0.00,,2013-03-09 07:11:00,
2013-03-09 01:21:00,43.0,28.0,30.14,ESE,119,2.0,11.0,55,0.00,,,0.00,,2013-03-09 07:21:00,
2013-03-09 01:31:00,43.0,28.0,30.14,SE,126,2.0,13.0,55,0.00,,,0.00,,2013-03-09 07:31:00,
2013-03-09 01:41:00,43.0,28.0,30.14,SE,126,2.0,13.0,55,0.00,,,0.00,,2013-03-09 07:41:00,
2013-03-09 01:52:00,42.0,27.0,30.13,East,99,4.0,13.0,55,0.00,,,0.00,,2013-03-09 07:52:00,
2013-03-09 02:01:00,42.0,27.0,30.13,ESE,114,6.0,9.0,56,0.00,,,0.00,,2013-03-09 08:01:00,
2013-03-09 02:11:00,42.0,27.0,30.13,ESE,114,6.0,9.0,56,0.00,,,0.00,,2013-03-09 08:11:00,
2013-03-09 02:21:00,42.0,27.0,30.11,ESE,123,5.0,11.0,56,0.00,,,0.00,,2013-03-09 08:21:00,
2013-03-09 02:31:00,42.0,27.0,30.11,ESE,119,5.0,11.0,56,0.00,,,0.00,,2013-03-09 08:31:00,
2013-03-09 02:41:00,42.0,27.0,30.11,ESE,119,5.0,11.0,56,0.00,,,0.00,,2013-03-09 08:41:00,
2013-03-09 02:52:00,42.0,27.0,30.11,ESE,119,5.0,11.0,56,0.00,,,0.00,,2013-03-09 08:52:00,
2013-03-09 03:01:00,42.0,29.0,30.10,ESE,109,3.0,10.0,59,0.00,,,0.00,,2013-03-09 09:01:00,
2013-03-09 03:12:00,42.0,29.0,30.10,ESE,109,3.0,10.0,59,0.00,,,0.00,,2013-03-09 09:12:00,
2013-03-09 03:21:00,41.0,28.0,30.09,ESE,112,4.0,7.0,60,0.00,,,0.00,,2013-03-09 09:21:00,
2013-03-09 03:32:00,41.0,29.0,30.10,ESE,114,2.0,7.0,61,0.00,,,0.00,,2013-03-09 09:32:00,
2013-03-09 03:41:00,41.0,29.0,30.10,ESE,114,2.0,7.0,61,0.00,,,0.00,,2013-03-09 09:41:00,
2013-03-09 03:52:00,41.0,29.0,30.09,SE,128,3.0,7.0,62,0.00,,,0.00,,2013-03-09 09:52:00,
2013-03-09 04:01:00,41.0,29.0,30.10,ESE,123,5.0,7.0,61,0.00,,,0.00,,2013-03-09 10:01:00,
2013-03-09 04:11:00,41.0,29.0,30.10,ESE,123,5.0,7.0,61,0.00,,,0.00,,2013-03-09 10:11:00,
2013-03-09 04:21:00,41.0,28.0,30.09,ESE,120,3.0,7.0,60,0.00,,,0.00,,2013-03-09 10:21:00,
2013-03-09 04:31:00,41.0,28.0,30.09,ESE,112,3.0,7.0,59,0.00,,,0.00,,2013-03-09 10:31:00,
2013-03-09 04:41:00,41.0,28.0,30.09,ESE,112,3.0,7.0,59,0.00,,,0.00,,2013-03-09 10:41:00,
2013-03-09 04:52:00,41.0,28.0,30.09,ESE,106,5.0,7.0,60,0.00,,,0.00,,2013-03-09 10:52:00,
2013-03-09 05:01:00,41.0,29.0,30.08,ESE,104,6.0,7.0,61,0.00,,,0.00,,2013-03-09 11:01:00,
2013-03-09 05:11:00,41.0,29.0,30.08,ESE,104,6.0,7.0,61,0.00,,,0.00,,2013-03-09 11:11:00,
2013-03-09 05:21:00,41.0,29.0,30.08,ESE,104,6.0,7.0,61,0.00,,,0.00,,2013-03-09 11:21:00,
2013-03-09 05:32:00,40.0,28.0,30.11,SE,127,4.0,9.0,63,0.00,,,0.00,,2013-03-09 11:32:00,
2013-03-09 05:41:00,40.0,28.0,30.11,SE,127,4.0,9.0,63,0.00,,,0.00,,2013-03-09 11:41:00,
2013-03-09 05:52:00,40.0,29.0,30.10,ESE,123,4.0,9.0,65,0.00,,,0.00,,2013-03-09 11:52:00,
2013-03-09 06:01:00,41.0,29.0,30.09,SE,133,5.0,5.0,63,0.00,,,0.00,,2013-03-09 12:01:00,
2013-03-09 06:11:00,41.0,29.0,30.09,SE,133,5.0,5.0,63,0.00,,,0.00,,2013-03-09 12:11:00,
2013-03-09 06:21:00,41.0,29.0,30.08,SE,127,4.0,9.0,63,0.00,,,0.00,,2013-03-09 12:21:00,
2013-03-09 06:32:00,41.0,29.0,30.08,SE,131,4.0,9.0,61,0.00,,,0.00,,2013-03-09 12:32:00,
2013-03-09 06:42:00,41.0,29.0,30.08,SE,131,4.0,9.0,61,0.00,,,0.00,,2013-03-09 12:42:00,
2013-03-09 06:52:00,41.0,28.0,30.09,SSE,152,2.0,9.0,60,0.00,,,0.00,,2013-03-09 12:52:00,
2013-03-09 07:02:00,42.0,30.0,30.09,SE,138,2.0,11.0,61,0.00,,,0.00,,2013-03-09 13:02:00,
2013-03-09 07:11:00,42.0,30.0,30.09,SE,138,2.0,11.0,61,0.00,,,0.00,,2013-03-09 13:11:00,
2013-03-09 07:21:00,42.0,30.0,30.10,SE,138,1.0,5.0,62,0.00,,,0.00,,2013-03-09 13:21:00,
2013-03-09 07:31:00,42.0,29.0,30.10,SE,143,2.0,5.0,60,0.00,,,0.00,,2013-03-09 13:31:00,
2013-03-09 07:42:00,42.0,29.0,30.10,SE,143,2.0,5.0,60,0.00,,,0.00,,2013-03-09 13:42:00,
2013-03-09 07:52:00,42.0,29.0,30.10,SE,143,2.0,5.0,60,0.00,,,0.00,,2013-03-09 13:52:00,
2013-03-09 08:01:00,42.0,29.0,30.11,SSE,148,1.0,6.0,60,0.00,,,0.00,,2013-03-09 14:01:00,
2013-03-09 08:11:00,42.0,29.0,30.11,SSE,148,1.0,6.0,60,0.00,,,0.00,,2013-03-09 14:11:00,
2013-03-09 08:21:00,43.0,30.0,30.11,SSE,162,3.0,5.0,59,0.00,,,0.00,,2013-03-09 14:21:00,
2013-03-09 08:32:00,43.0,30.0,30.11,SSE,155,2.0,5.0,60,0.00,,,0.00,,2013-03-09 14:32:00,
2013-03-09 08:42:00,43.0,30.0,30.11,SSE,155,2.0,5.0,60,0.00,,,0.00,,2013-03-09 14:42:00,
2013-03-09 08:52:00,44.0,31.0,30.10,South,171,2.0,5.0,60,0.00,,,0.00,,2013-03-09 14:52:00,
2013-03-09 09:01:00,45.0,30.0,30.11,South,174,5.0,7.0,56,0.00,,,0.00,,2013-03-09 15:01:00,
2013-03-09 09:11:00,45.0,30.0,30.11,South,174,5.0,7.0,56,0.00,,,0.00,,2013-03-09 15:11:00,
2013-03-09 09:22:00,47.0,31.0,30.10,SSE,161,5.0,7.0,53,0.00,,,0.00,,2013-03-09 15:22:00,
2013-03-09 09:31:00,49.0,31.0,30.10,South,181,4.0,7.0,50,0.00,,,0.00,,2013-03-09 15:31:00,
2013-03-09 09:42:00,49.0,31.0,30.10,South,181,4.0,7.0,50,0.00,,,0.00,,2013-03-09 15:42:00,
2013-03-09 09:52:00,49.0,30.0,30.10,South,189,5.0,7.0,48,0.00,,,0.00,,2013-03-09 15:52:00,
2013-03-09 10:01:00,50.0,32.0,30.10,South,174,5.0,11.0,49,0.00,,,0.00,,2013-03-09 16:01:00,
2013-03-09 10:11:00,50.0,32.0,30.10,South,174,5.0,11.0,49,0.00,,,0.00,,2013-03-09 16:11:00,
2013-03-09 10:21:00,51.0,31.0,30.09,SSE,168,3.0,10.0,47,0.00,,,0.00,,2013-03-09 16:21:00,
2013-03-09 10:32:00,51.0,31.0,30.09,SSE,168,3.0,10.0,47,0.00,,,0.00,,2013-03-09 16:32:00,
2013-03-09 10:41:00,51.0,31.0,30.09,SSE,168,3.0,10.0,47,0.00,,,0.00,,2013-03-09 16:41:00,
2013-03-09 10:52:00,51.0,29.0,30.08,South,184,8.0,10.0,43,0.00,,,0.00,,2013-03-09 16:52:00,
2013-03-09 11:01:00,51.0,29.0,30.07,SSE,162,2.0,13.0,43,0.00,,,0.00,,2013-03-09 17:01:00,
2013-03-09 11:11:00,51.0,29.0,30.07,SSE,162,2.0,13.0,43,0.00,,,0.00,,2013-03-09 17:11:00,
2013-03-09 11:22:00,51.0,30.0,30.07,SSE,160,4.0,11.0,45,0.00,,,0.00,,2013-03-09 17:22:00,
2013-03-09 11:32:00,52.0,32.0,30.06,South,172,5.0,11.0,46,0.00,,,0.00,,2013-03-09 17:32:00,
2013-03-09 11:42:00,52.0,32.0,30.06,South,172,5.0,11.0,46,0.00,,,0.00,,2013-03-09 17:42:00,
2013-03-09 11:52:00,52.0,31.0,30.06,South,179,3.0,11.0,44,0.00,,,0.00,,2013-03-09 17:52:00,
2013-03-09 12:01:00,54.0,35.0,30.05,South,169,7.0,11.0,48,0.00,,,0.00,,2013-03-09 18:01:00,
2013-03-09 12:11:00,54.0,35.0,30.05,South,169,7.0,11.0,48,0.00,,,0.00,,2013-03-09 18:11:00,
2013-03-09 12:21:00,55.0,32.0,30.04,SSE,161,8.0,12.0,42,0.00,,,0.00,,2013-03-09 18:21:00,
2013-03-09 12:31:00,55.0,32.0,30.04,SSE,161,8.0,12.0,42,0.00,,,0.00,,2013-03-09 18:31:00,
2013-03-09 12:42:00,55.0,32.0,30.04,SSE,161,8.0,12.0,42,0.00,,,0.00,,2013-03-09 18:42:00,
2013-03-09 12:52:00,58.0,32.0,30.02,SW,215,10.0,12.0,37,0.00,,,0.00,,2013-03-09 18:52:00,
2013-03-09 13:01:00,58.0,33.0,30.01,South,174,3.0,14.0,39,0.00,,,0.00,,2013-03-09 19:01:00,
2013-03-09 13:11:00,58.0,33.0,30.01,South,174,3.0,14.0,39,0.00,,,0.00,,2013-03-09 19:11:00,
2013-03-09 13:22:00,60.0,33.0,30.00,West,264,3.0,16.0,36,0.00,,,0.00,,2013-03-09 19:22:00,
2013-03-09 13:32:00,60.0,32.0,29.99,SSE,158,8.0,16.0,35,0.00,,,0.00,,2013-03-09 19:32:00,
2013-03-09 13:42:00,60.0,32.0,29.99,SSE,158,8.0,16.0,35,0.00,,,0.00,,2013-03-09 19:42:00,
2013-03-09 13:52:00,61.0,34.0,29.98,SSW,203,12.0,16.0,36,0.00,,,0.00,,2013-03-09 19:52:00,
2013-03-09 14:01:00,61.0,34.0,29.98,South,188,5.0,11.0,36,0.00,,,0.00,,2013-03-09 20:01:00,
2013-03-09 14:11:00,61.0,34.0,29.98,South,188,5.0,11.0,36,0.00,,,0.00,,2013-03-09 20:11:00,
2013-03-09 14:21:00,64.0,30.0,29.97,South,169,6.0,14.0,28,0.00,,,0.00,,2013-03-09 20:21:00,
2013-03-09 14:32:00,63.0,30.0,29.96,SSW,210,8.0,14.0,29,0.00,,,0.00,,2013-03-09 20:32:00,
2013-03-09 14:42:00,63.0,30.0,29.96,SSW,210,8.0,14.0,29,0.00,,,0.00,,2013-03-09 20:42:00,
2013-03-09 14:52:00,63.0,31.0,29.96,SW,227,7.0,14.0,30,0.00,,,0.00,,2013-03-09 20:52:00,
2013-03-09 15:02:00,63.0,31.0,29.95,South,178,7.0,15.0,30,0.00,,,0.00,,2013-03-09 21:02:00,
2013-03-09 15:12:00,63.0,31.0,29.95,South,178,7.0,15.0,30,0.00,,,0.00,,2013-03-09 21:12:00,
2013-03-09 15:21:00,64.0,32.0,29.94,South,186,6.0,20.0,30,0.00,,,0.00,,2013-03-09 21:21:00,
2013-03-09 15:32:00,64.0,35.0,29.94,South,184,9.0,20.0,34,0.00,,,0.00,,2013-03-09 21:32:00,
2013-03-09 15:42:00,64.0,35.0,29.94,South,184,9.0,20.0,34,0.00,,,0.00,,2013-03-09 21:42:00,
2013-03-09 15:52:00,62.0,29.0,29.94,SSW,210,10.0,20.0,28,0.00,,,0.00,,2013-03-09 21:52:00,
2013-03-09 16:01:00,64.0,33.0,29.93,South,189,14.0,14.0,31,0.00,,,0.00,,2013-03-09 22:01:00,
2013-03-09 16:11:00,64.0,33.0,29.93,South,189,14.0,14.0,31,0.00,,,0.00,,2013-03-09 22:11:00,
2013-03-09 16:21:00,63.0,33.0,29.93,South,175,5.0,16.0,33,0.00,,,0.00,,2013-03-09 22:21:00,
2013-03-09 16:32:00,63.0,34.0,29.92,South,174,8.0,16.0,34,0.00,,,0.00,,2013-03-09 22:32:00,
2013-03-09 16:41:00,63.0,34.0,29.92,South,174,8.0,16.0,34,0.00,,,0.00,,2013-03-09 22:41:00,
2013-03-09 16:52:00,63.0,31.0,29.92,SSW,193,5.0,16.0,30,0.00,,,0.00,,2013-03-09 22:52:00,
2013-03-09 17:01:00,63.0,29.0,29.92,SSW,208,12.0,16.0,27,0.00,,,0.00,,2013-03-09 23:01:00,
2013-03-09 17:11:00,63.0,29.0,29.92,SSW,208,12.0,16.0,27,0.00,,,0.00,,2013-03-09 23:11:00,
2013-03-09 17:21:00,62.0,30.0,29.92,South,191,4.0,16.0,30,0.00,,,0.00,,2013-03-09 23:21:00,
2013-03-09 17:32:00,61.0,31.0,29.91,South,176,2.0,14.0,32,0.00,,,0.00,,2013-03-09 23:32:00,
2013-03-09 17:41:00,61.0,31.0,29.91,South,176,2.0,14.0,32,0.00,,,0.00,,2013-03-09 23:41:00,
2013-03-09 17:52:00,61.0,29.0,29.91,South,169,3.0,14.0,30,0.00,,,0.00,,2013-03-09 23:52:00,
2013-03-09 18:01:00,60.0,32.0,29.91,SSE,168,2.0,10.0,34,0.00,,,0.00,,2013-03-10 00:01:00,
2013-03-09 18:11:00,60.0,32.0,29.91,SSE,168,2.0,10.0,34,0.00,,,0.00,,2013-03-10 00:11:00,
2013-03-09 18:22:00,60.0,31.0,29.91,SSE,165,2.0,8.0,33,0.00,,,0.00,,2013-03-10 00:22:00,
2013-03-09 18:32:00,59.0,31.0,29.91,South,171,2.0,8.0,34,0.00,,,0.00,,2013-03-10 00:32:00,
2013-03-09 18:42:00,59.0,31.0,29.91,South,171,2.0,8.0,34,0.00,,,0.00,,2013-03-10 00:42:00,
2013-03-09 18:52:00,58.0,31.0,29.91,SSW,199,2.0,8.0,36,0.00,,,0.00,,2013-03-10 00:52:00,
2013-03-09 19:01:00,58.0,31.0,29.91,SSE,168,2.0,6.0,36,0.00,,,0.00,,2013-03-10 01:01:00,
2013-03-09 19:11:00,58.0,31.0,29.91,SSE,168,2.0,6.0,36,0.00,,,0.00,,2013-03-10 01:11:00,
2013-03-09 19:21:00,58.0,33.0,29.91,South,178,1.0,6.0,38,0.00,,,0.00,,2013-03-10 01:21:00,
2013-03-09 19:31:00,57.0,31.0,29.91,South,169,1.0,6.0,37,0.00,,,0.00,,2013-03-10 01:31:00,
2013-03-09 19:41:00,57.0,31.0,29.91,South,169,1.0,6.0,37,0.00,,,0.00,,2013-03-10 01:41:00,
2013-03-09 19:52:00,56.0,31.0,29.91,South,169,1.0,6.0,38,0.00,,,0.00,,2013-03-10 01:52:00,
2013-03-09 20:01:00,55.0,31.0,29.91,South,169,2.0,5.0,40,0.00,,,0.00,,2013-03-10 02:01:00,
2013-03-09 20:11:00,55.0,31.0,29.91,South,169,2.0,5.0,40,0.00,,,0.00,,2013-03-10 02:11:00,
2013-03-09 20:22:00,55.0,31.0,29.91,South,169,2.0,5.0,40,0.00,,,0.00,,2013-03-10 02:22:00,
2013-03-09 20:31:00,55.0,32.0,29.90,SSE,164,3.0,5.0,41,0.00,,,0.00,,2013-03-10 02:31:00,
2013-03-09 20:42:00,55.0,32.0,29.90,SSE,164,3.0,5.0,41,0.00,,,0.00,,2013-03-10 02:42:00,
2013-03-09 20:52:00,55.0,32.0,29.90,SSE,164,3.0,5.0,41,0.00,,,0.00,,2013-03-10 02:52:00,
2013-03-09 21:01:00,55.0,32.0,29.90,SSE,164,3.0,5.0,41,0.00,,,0.00,,2013-03-10 03:01:00,
2013-03-09 21:11:00,56.0,33.0,29.90,SSE,168,2.0,7.0,42,0.00,,,0.00,,2013-03-10 03:11:00,
2013-03-09 21:22:00,56.0,33.0,29.90,SSE,168,2.0,7.0,42,0.00,,,0.00,,2013-03-10 03:22:00,
2013-03-09 21:32:00,56.0,33.0,29.90,SSE,167,2.0,7.0,42,0.00,,,0.00,,2013-03-10 03:32:00,
2013-03-09 21:42:00,55.0,33.0,29.90,South,169,2.0,7.0,43,0.00,,,0.00,,2013-03-10 03:42:00,
2013-03-09 21:52:00,55.0,33.0,29.90,South,169,2.0,7.0,43,0.00,,,0.00,,2013-03-10 03:52:00,
2013-03-09 22:01:00,55.0,34.0,29.90,SSE,168,4.0,7.0,45,0.00,,,0.00,,2013-03-10 04:01:00,
2013-03-09 22:11:00,55.0,35.0,29.90,South,181,2.0,7.0,47,0.00,,,0.00,,2013-03-10 04:11:00,
2013-03-09 22:21:00,55.0,35.0,29.90,South,181,2.0,7.0,47,0.00,,,0.00,,2013-03-10 04:21:00,
2013-03-09 22:31:00,54.0,35.0,29.89,South,172,1.0,7.0,49,0.00,,,0.00,,2013-03-10 04:31:00,
2013-03-09 22:42:00,54.0,35.0,29.89,South,172,1.0,7.0,49,0.00,,,0.00,,2013-03-10 04:42:00,
2013-03-09 22:51:00,54.0,36.0,29.90,SSW,209,2.0,7.0,50,0.00,,,0.00,,2013-03-10 04:51:00,
2013-03-09 23:01:00,53.0,35.0,29.89,SSW,202,2.0,7.0,50,0.00,,,0.00,,2013-03-10 05:01:00,
2013-03-09 23:11:00,53.0,35.0,29.89,SSW,202,2.0,7.0,50,0.00,,,0.00,,2013-03-10 05:11:00,
2013-03-09 23:22:00,53.0,35.0,29.88,South,182,5.0,7.0,50,0.00,,,0.00,,2013-03-10 05:22:00,
2013-03-09 23:31:00,54.0,35.0,29.87,SSW,196,5.0,11.0,48,0.00,,,0.00,,2013-03-10 05:31:00,
2013-03-09 23:42:00,53.0,35.0,29.88,South,188,3.0,11.0,51,0.00,,,0.00,,2013-03-10 05:42:00,
2013-03-09 23:52:00,53.0,35.0,29.88,South,188,3.0,11.0,51,0.00,,,0.00,,2013-03-10 05:52:00,